Tracking 19575 objects as of 19-Feb-2019
HD Live streaming from Space Station
objects crossing your sky now

XSS 10

Track XSS 10 now!
10-day predictions
XSS 10 is classified as:


NORAD ID: 27664
Int'l Code: 2003-005B
Perigee: 515.3 km
Apogee: 764.4 km
Inclination: 39.7 °
Period: 97.4 minutes
Semi major axis: 7010 km
RCS: 0.183 m2 (medium)
Launch date: January 29, 2003
Source: United States (US)
Launch site: AIR FORCE EASTERN TEST RANGE (AFETR)
aabbcc
Your satellite tracking list
Your tracking list is empty




NASA's NSSDC Master Catalog

Two Line Element Set (TLE):
1 27664U 03005B   19049.52401900 -.00000008  00000-0  14799-4 0  9990
2 27664  39.7493 149.7421 0177682 349.9457   9.7793 14.78936558865664
Source of the keplerian elements: AFSPC